[[{"header":{"parameterUnit":"m.s-1","parameterCategory":1,"la1":30.2991,"la2":30.254,"lo1":-89.0895,"lo2":-89.0444,"dy":0.0017,"dx":0.0017,"nx":28,"ny":28,"refTime":"2025-08-06T21:00:00:Z","depth":0,"parameterNumber":2,"parameterNumberName":"U-component_of_WINDS"},"data":[0,0,0,0,0,0,0,0,0,0,0,0,0,0,0,0,0,0,0,0,0,0,0,0,0,0,0,0,0,0,0,0,0,0,0,0,0,0,0,0,0,0,0,0,0,0,0,0,0,0,0,0,0,0,0,0,0,0,-0.7809,-0.7809,0,-0.7799,-0.7799,-0.7799,-0.7796,-0.7796,-0.7796,-0.7796,-0.7784,-0.7784,-0.7783,0,0,0,0,0,0,0,0,0,0,0,0,0,-0.7825,-0.7825,-0.7809,-0.7809,-0.7809,-0.7799,-0.7799,-0.7799,-0.7796,-0.7796,-0.7796,-0.7796,-0.7784,-0.7784,-0.7783,0,0,0,0,0,0,0,0,0,0,0,0,0,-0.7817,-0.7825,-0.7809,-0.7806,-0.7806,-0.7799,-0.7799,-0.7799,-0.7796,-0.7796,-0.7796,-0.7796,-0.7784,-0.7784,-0.7783,-0.7778,0,0,-0.7781,-0.7781,0,0,0,0,0,0,0,0,-0.7817,-0.7816,-0.7807,-0.7807,-0.7806,-0.7799,-0.78,-0.7792,-0.7796,-0.78,-0.7796,-0.7796,-0.7789,-0.7788,-0.7786,-0.7777,-0.7776,-0.7781,-0.7781,-0.7781,-0.7781,0,0,0,0,0,0,0,-0.7818,-0.7817,-0.7805,-0.7807,-0.7806,-0.7805,-0.7804,-0.7798,-0.7794,-0.78,-0.7799,-0.7798,-0.7789,-0.7786,-0.7785,-0.7776,-0.7781,-0.7781,-0.778,-0.778,-0.7763,-0.7763,0,0,0,0,0,0,-0.7819,-0.7817,-0.7805,-0.7805,-0.7812,-0.7805,-0.7804,-0.7801,-0.7794,-0.7793,-0.7798,-0.7798,-0.7787,-0.7786,-0.7785,-0.7778,-0.7781,-0.778,-0.778,-0.7763,-0.7763,-0.7763,0,0,0,0,0,0,-0.782,-0.7818,-0.7806,-0.7811,-0.7809,-0.7805,-0.7802,-0.7801,-0.7799,-0.7793,-0.7792,-0.7797,-0.7787,-0.7786,-0.778,-0.7778,-0.778,-0.7779,-0.7763,-0.7763,-0.7763,-0.7764,0,0,0,0,0,0,-0.782,-0.7818,-0.7816,-0.7811,-0.7809,-0.7801,-0.7802,-0.7801,-0.7798,-0.7798,-0.7791,-0.779,-0.7787,-0.7781,-0.7779,-0.7777,-0.7779,-0.7763,-0.7763,-0.7763,-0.7764,-0.7764,-0.7764,0,0,0,0,0,-0.7821,-0.7817,-0.7816,-0.7815,-0.7807,-0.7801,-0.78,-0.7797,-0.7798,-0.7795,-0.7792,-0.779,-0.7778,-0.778,-0.7778,-0.7776,-0.7763,-0.7763,-0.7763,-0.7764,-0.7764,-0.7764,0,0,0,0,0,0,-0.7821,-0.7816,-0.7815,-0.781,-0.7806,-0.7801,-0.7798,-0.7797,-0.7792,-0.7792,-0.7788,-0.7787,-0.7781,-0.7778,-0.778,-0.777,-0.7771,-0.777,-0.7772,-0.7772,-0.7772,-0.7773,-0.7778,0,0,0,0,0,-0.7821,-0.7817,-0.7813,-0.7808,-0.7806,-0.7802,-0.78,-0.7798,-0.7794,-0.7792,-0.7788,-0.7783,-0.7778,-0.7775,-0.777,-0.7764,-0.7762,-0.7761,-0.7761,-0.7761,-0.776,-0.7757,-0.7756,-0.7762,-0.7762,-0.7762,0,0,-0.782,-0.7816,-0.7814,-0.7808,-0.7805,-0.7801,-0.7801,-0.7796,-0.7793,-0.7791,-0.7785,-0.7782,-0.7777,-0.777,-0.7767,-0.7768,-0.7759,-0.7761,-0.7761,-0.776,-0.7757,-0.7756,-0.7756,-0.7762,-0.7762,-0.7762,0,0,-0.7816,-0.7813,-0.7809,-0.7806,-0.7801,-0.7799,-0.7798,-0.7793,-0.7791,-0.7785,-0.7784,-0.778,-0.7771,-0.7767,-0.7765,-0.776,-0.7758,-0.7758,-0.7757,-0.7754,-0.7753,-0.7753,-0.7751,-0.7751,-0.7758,-0.7758,-0.7758,0,-0.7815,-0.7809,-0.7807,-0.7803,-0.78,-0.7798,-0.7794,-0.7791,-0.7785,-0.7783,-0.7784,-0.7773,-0.777,-0.7763,-0.7762,-0.7759,-0.7758,-0.7759,-0.7754,-0.7753,-0.7753,-0.7751,-0.7751,-0.7758,-0.7758,-0.7758,-0.7758,0,-0.7808,-0.7804,-0.7801,-0.7796,-0.7793,-0.7789,-0.7786,-0.7783,-0.7782,-0.7779,-0.7773,-0.7769,-0.7763,-0.7762,-0.776,-0.7755,-0.7755,-0.7755,-0.7755,-0.7752,-0.7751,-0.775,-0.7758,-0.7758,-0.7758,-0.7758,0,0,-0.7803,-0.7797,-0.7796,-0.7794,-0.779,-0.7786,-0.7782,-0.7777,-0.7775,-0.7771,-0.7767,-0.7761,-0.7761,-0.7757,-0.7755,-0.7752,-0.7749,-0.7752,-0.7752,-0.7752,-0.7743,-0.7743,-0.7742,-0.7748,-0.7748,-0.7748,-0.7743,0,-0.7798,-0.7791,-0.7789,-0.7783,-0.7779,-0.7778,-0.7775,-0.7771,-0.7769,-0.7765,-0.7762,-0.7758,-0.7758,-0.7756,-0.7753,-0.775,-0.7747,-0.775,-0.7744,-0.7744,-0.7745,-0.7741,-0.7741,-0.7737,-0.7743,-0.7742,-0.7742,0,-0.7791,-0.7788,-0.7781,-0.7778,-0.7776,-0.7773,-0.7768,-0.7765,-0.7761,-0.776,-0.7757,-0.7755,-0.775,-0.7752,-0.7745,-0.7747,-0.7745,-0.7743,-0.7743,-0.7741,-0.7743,-0.774,-0.7735,-0.7735,-0.7741,-0.7741,-0.7741,0,-0.7788,-0.7782,-0.7777,-0.7776,-0.7771,-0.7769,-0.7767,-0.7763,-0.7761,-0.7757,-0.7755,-0.7751,-0.7748,-0.7744,-0.7742,-0.7743,-0.7735,-0.7736,-0.7734,-0.7734,-0.7732,-0.7732,-0.7727,-0.7731,-0.7731,-0.7731,-0.7731,0,-0.7782,-0.7778,-0.7776,-0.7773,-0.7769,-0.7767,-0.7763,-0.776,-0.7757,-0.7754,-0.7753,-0.7749,-0.7746,-0.7742,-0.774,-0.7735,-0.7734,-0.7732,-0.7732,-0.7732,-0.7732,-0.773,-0.773,-0.773,-0.773,-0.7731,-0.7731,0,-0.7778,-0.7776,-0.7771,-0.7768,-0.7767,-0.7764,-0.7761,-0.7758,-0.7756,-0.7751,-0.775,-0.7747,-0.7743,-0.774,-0.7734,-0.7732,-0.7727,-0.7726,-0.7728,-0.7728,-0.7726,-0.7726,-0.7718,-0.7717,-0.7722,-0.7722,-0.7722,0,-0.7774,-0.7771,-0.7768,-0.7766,-0.7764,-0.776,-0.7758,-0.7756,-0.7754,-0.775,-0.7747,-0.7743,-0.7739,-0.7732,-0.7729,-0.7725,-0.7724,-0.7722,-0.7723,-0.7724,-0.7724,-0.7724,-0.7724,-0.7721,-0.7721,-0.7721,-0.7721,0,-0.7768,-0.7767,-0.7764,-0.7761,-0.7758,-0.7756,-0.7753,-0.7751,-0.7749,-0.7746,-0.7742,-0.7739,-0.7734,-0.7729,-0.7725,-0.7722,-0.7721,-0.7721,-0.772,-0.772,-0.7722,-0.7721,-0.7727,-0.7721,-0.7721,-0.7721,-0.7721,-0.7721,-0.7763,-0.7761,-0.7758,-0.7755,-0.7753,-0.775,-0.7748,-0.7746,-0.7743,-0.7738,-0.7738,-0.7733,-0.773,-0.7724,-0.7721,-0.7718,-0.7718,-0.7717,-0.7716,-0.7716,-0.7716,-0.7723,-0.7717,-0.7717,-0.7717,-0.7717,-0.7717,0,-0.7757,-0.7755,-0.7752,-0.7749,-0.7746,-0.7747,-0.7744,-0.7741,-0.7738,-0.7735,-0.7732,-0.7727,-0.7723,-0.772,-0.7716,-0.7714,-0.7713,-0.7713,-0.7713,-0.7712,-0.7716,-0.7717,-0.7713,-0.7713,-0.7713,-0.7713,-0.7713,-0.7713,-0.7753,-0.7749,-0.7748,-0.7743,-0.7741,-0.7738,-0.7736,-0.7734,-0.7732,-0.7727,-0.7724,-0.7722,-0.7719,-0.7715,-0.7711,-0.7711,-0.7709,-0.7709,-0.7708,-0.7711,-0.7712,-0.7712,-0.7713,-0.7708,-0.7708,-0.7704,-0.7704,-0.7704]},{"header":{"parameterUnit":"m.s-1","parameterCategory":1,"la1":30.2991,"la2":30.254,"lo1":-89.0895,"lo2":-89.0444,"dy":0.0017,"dx":0.0017,"nx":28,"ny":28,"refTime":"2025-08-06T21:00:00:Z","depth":0,"parameterNumber":3,"parameterNumberName":"V-component_of_WINDS"},"data":[0,0,0,0,0,0,0,0,0,0,0,0,0,0,0,0,0,0,0,0,0,0,0,0,0,0,0,0,0,0,0,0,0,0,0,0,0,0,0,0,0,0,0,0,0,0,0,0,0,0,0,0,0,0,0,0,0,0,0.8931,0.8929,0,0.881,0.8809,0.8808,0.8735,0.8735,0.8735,0.8734,0.8607,0.8604,0.8601,0,0,0,0,0,0,0,0,0,0,0,0,0,0.9093,0.9091,0.8931,0.8929,0.8928,0.8811,0.8809,0.8807,0.8735,0.8735,0.8735,0.8734,0.8608,0.8604,0.86,0,0,0,0,0,0,0,0,0,0,0,0,0,0.9003,0.909,0.8931,0.8878,0.8872,0.8811,0.8809,0.8807,0.8735,0.8735,0.8734,0.8734,0.8609,0.8604,0.86,0.8581,0,0,0.8586,0.8584,0,0,0,0,0,0,0,0,0.9008,0.8997,0.8887,0.8881,0.8875,0.8787,0.8819,0.8731,0.8736,0.8787,0.8734,0.8734,0.8667,0.8657,0.8636,0.8575,0.8569,0.8585,0.8582,0.858,0.8579,0,0,0,0,0,0,0,0.9014,0.9002,0.8883,0.8886,0.8878,0.8858,0.8845,0.8802,0.8731,0.8783,0.8777,0.8764,0.8663,0.864,0.8632,0.8568,0.8585,0.8581,0.8578,0.8576,0.8483,0.8483,0,0,0,0,0,0,0.903,0.9007,0.8887,0.8879,0.8942,0.8856,0.8841,0.8816,0.8731,0.8718,0.8765,0.8761,0.8649,0.8638,0.8627,0.8598,0.858,0.8576,0.8573,0.8482,0.8483,0.8483,0,0,0,0,0,0,0.9034,0.902,0.8892,0.8942,0.8924,0.8854,0.8826,0.8814,0.8791,0.8718,0.8704,0.8755,0.8648,0.8634,0.8593,0.8593,0.8574,0.857,0.8482,0.8482,0.8483,0.8541,0,0,0,0,0,0,0.9039,0.9022,0.9015,0.8942,0.8922,0.8861,0.8826,0.8812,0.8783,0.8778,0.8705,0.8692,0.8646,0.86,0.8588,0.8586,0.8566,0.8482,0.8482,0.8483,0.8538,0.8543,0.8547,0,0,0,0,0,0.9045,0.9036,0.9015,0.9001,0.8912,0.8861,0.8849,0.8798,0.8784,0.8776,0.8728,0.8695,0.8595,0.8597,0.8582,0.8579,0.8481,0.8482,0.8483,0.8537,0.8542,0.8547,0,0,0,0,0,0,0.9109,0.9025,0.9001,0.8969,0.8923,0.8849,0.8837,0.8806,0.8761,0.8758,0.8694,0.8678,0.8643,0.8607,0.861,0.8555,0.8534,0.8532,0.858,0.8585,0.8589,0.8598,0.8562,0,0,0,0,0,0.912,0.9087,0.9015,0.8993,0.8971,0.8908,0.8884,0.8849,0.8797,0.8777,0.8727,0.8678,0.8635,0.8608,0.8565,0.8533,0.8515,0.8524,0.8528,0.8532,0.853,0.8509,0.8511,0.8485,0.8485,0.8485,0,0,0.9141,0.9091,0.9074,0.9004,0.8964,0.893,0.8892,0.8858,0.883,0.8771,0.8729,0.8691,0.8631,0.8594,0.8576,0.8563,0.8534,0.8533,0.8536,0.8532,0.851,0.8512,0.8514,0.8486,0.8486,0.8485,0,0,0.9162,0.9122,0.9098,0.9059,0.8999,0.8957,0.8952,0.8882,0.8855,0.8812,0.8766,0.8733,0.8661,0.862,0.8589,0.8594,0.856,0.8581,0.8603,0.8583,0.8585,0.8586,0.8586,0.8587,0.858,0.858,0.858,0,0.9195,0.9143,0.909,0.9057,0.9027,0.8973,0.8948,0.8912,0.8841,0.882,0.8808,0.8716,0.8672,0.8624,0.8625,0.8603,0.8592,0.8589,0.8589,0.859,0.8591,0.8589,0.859,0.8583,0.8583,0.8582,0.8582,0,0.9186,0.915,0.9138,0.9071,0.904,0.9011,0.8952,0.8926,0.8893,0.8852,0.8808,0.8754,0.8698,0.8684,0.8651,0.863,0.8624,0.8602,0.8579,0.8597,0.8595,0.8594,0.8587,0.8586,0.8585,0.8585,0,0,0.9244,0.9148,0.9144,0.9113,0.9042,0.9012,0.8981,0.8927,0.8905,0.8858,0.8828,0.8768,0.8746,0.8712,0.8673,0.8656,0.866,0.8635,0.8632,0.864,0.8632,0.8649,0.8649,0.8638,0.8638,0.8638,0.8636,0,0.9253,0.9194,0.9145,0.9103,0.9068,0.9016,0.8988,0.8941,0.8901,0.8864,0.882,0.8778,0.8753,0.8732,0.8712,0.8664,0.8658,0.8664,0.8608,0.8606,0.8623,0.8648,0.8666,0.8667,0.8635,0.8635,0.8635,0,0.9256,0.9211,0.9166,0.9098,0.9081,0.9057,0.9003,0.8969,0.8914,0.8886,0.8848,0.8808,0.877,0.8752,0.8697,0.8702,0.8676,0.8649,0.8648,0.8639,0.8621,0.8639,0.8667,0.8666,0.8633,0.8633,0.8634,0,0.93,0.9229,0.9192,0.9167,0.9087,0.9071,0.9036,0.8981,0.8951,0.8903,0.8883,0.8831,0.8803,0.8763,0.8709,0.8702,0.8659,0.8637,0.8633,0.8634,0.8625,0.8626,0.8648,0.8612,0.8612,0.8612,0.8612,0,0.9314,0.9289,0.9211,0.9189,0.9157,0.91,0.9071,0.9032,0.8982,0.895,0.8901,0.8871,0.8804,0.8765,0.8723,0.8682,0.867,0.8645,0.8634,0.8649,0.8652,0.863,0.8628,0.8612,0.8612,0.8612,0.8612,0,0.9359,0.9306,0.9262,0.919,0.9171,0.9151,0.9089,0.9064,0.9022,0.8981,0.8968,0.8901,0.8853,0.8797,0.873,0.8701,0.8664,0.8648,0.8683,0.8676,0.8675,0.8675,0.8682,0.8679,0.8647,0.8647,0.8647,0,0.9371,0.935,0.9275,0.9251,0.9218,0.9179,0.9148,0.9091,0.9061,0.8996,0.8978,0.8927,0.8882,0.8808,0.8752,0.87,0.8682,0.8688,0.8674,0.8689,0.868,0.8681,0.8678,0.8691,0.8692,0.8693,0.8693,0,0.9397,0.9372,0.933,0.928,0.9245,0.9202,0.9157,0.9139,0.9072,0.904,0.8991,0.8957,0.8889,0.8837,0.8779,0.8741,0.8705,0.8698,0.8694,0.8708,0.8728,0.8716,0.8692,0.8698,0.8697,0.8697,0.8697,0.8696,0.9424,0.9402,0.9346,0.9301,0.9261,0.922,0.9193,0.9147,0.9106,0.9047,0.9015,0.8966,0.8909,0.8826,0.879,0.875,0.8737,0.8732,0.873,0.8729,0.8733,0.8736,0.8739,0.8739,0.8738,0.8738,0.8738,0,0.9446,0.9408,0.9367,0.9305,0.927,0.9241,0.9189,0.916,0.9118,0.9069,0.9026,0.8969,0.8919,0.8859,0.8805,0.8784,0.8766,0.8771,0.8771,0.8763,0.8748,0.8756,0.8786,0.8786,0.8786,0.8786,0.8786,0.8786,0.9454,0.9415,0.9383,0.9323,0.9284,0.9236,0.9209,0.917,0.913,0.9068,0.9027,0.8989,0.8935,0.8876,0.8828,0.8811,0.8792,0.8803,0.8781,0.8768,0.8764,0.876,0.8767,0.8799,0.8799,0.8799,0.8799,0.8799]}]]